Time,TemperatureF,DewpointF,PressureIn,WindDirection,WindDirectionDegrees,WindSpeedMPH,WindSpeedGustMPH,Humidity,HourlyPrecipIn,Conditions,Clouds,dailyrainin,SoftwareType,DateUTC
2013-01-01 00:00:00,39.8,30.8,29.92,WSW,257,2.0,5.0,70,0.00,,OVC080,0.00,VWS V14.00,2013-01-01 05:00:00,
2013-01-01 00:05:00,39.8,31.2,29.92,SW,223,1.0,5.0,71,0.00,,OVC080,0.00,VWS V14.00,2013-01-01 05:05:00,
2013-01-01 00:10:00,39.8,31.2,29.92,SW,214,3.0,5.0,71,0.00,,OVC080,0.00,VWS V14.00,2013-01-01 05:10:00,
2013-01-01 00:15:00,39.7,31.1,29.91,West,261,0.0,4.0,71,0.00,,OVC080,0.00,VWS V14.00,2013-01-01 05:15:00,
2013-01-01 00:20:00,39.6,31.0,29.91,SW,221,0.0,3.0,71,0.00,,OVC080,0.00,VWS V14.00,2013-01-01 05:20:00,
2013-01-01 00:25:00,39.5,30.9,29.91,WNW,288,0.0,4.0,71,0.00,,OVC080,0.00,VWS V14.00,2013-01-01 05:25:00,
2013-01-01 00:30:00,39.5,30.9,29.91,WSW,246,0.0,5.0,71,0.00,,OVC080,0.00,VWS V14.00,2013-01-01 05:30:00,
2013-01-01 00:41:00,39.3,31.0,29.91,WSW,248,1.0,4.0,72,0.00,,OVC080,0.01,VWS V14.00,2013-01-01 05:41:00,
2013-01-01 00:46:00,39.3,31.0,29.91,WSW,245,1.0,2.0,72,0.00,,OVC090,0.01,VWS V14.00,2013-01-01 05:46:00,
2013-01-01 00:51:00,39.3,31.0,29.91,WSW,238,0.0,2.0,72,0.00,,OVC090,0.01,VWS V14.00,2013-01-01 05:51:00,
2013-01-01 00:56:00,39.3,31.0,29.91,West,265,0.0,0.0,72,0.00,,OVC090,0.01,VWS V14.00,2013-01-01 05:56:00,
2013-01-01 01:01:00,39.2,31.0,29.91,SW,226,0.0,1.0,72,0.00,,OVC037,0.01,VWS V14.00,2013-01-01 06:01:00,
2013-01-01 01:06:00,39.2,31.0,29.91,WSW,252,0.0,2.0,72,0.00,,OVC037,0.01,VWS V14.00,2013-01-01 06:06:00,
2013-01-01 01:11:00,39.2,31.0,29.91,SW,232,0.0,0.0,72,0.00,,OVC037,0.01,VWS V14.00,2013-01-01 06:11:00,
2013-01-01 01:16:00,39.2,31.0,29.91,WSW,237,0.0,0.0,72,0.00,,OVC037,0.01,VWS V14.00,2013-01-01 06:16:00,
2013-01-01 01:21:00,39.2,31.0,29.91,SW,232,0.0,0.0,72,0.00,,OVC037,0.01,VWS V14.00,2013-01-01 06:21:00,
2013-01-01 01:26:00,39.2,31.0,29.91,SW,234,0.0,0.0,72,0.00,,OVC037,0.01,VWS V14.00,2013-01-01 06:26:00,
2013-01-01 01:31:00,39.2,31.0,29.90,WSW,257,0.0,1.0,72,0.00,,OVC037,0.01,VWS V14.00,2013-01-01 06:31:00,
2013-01-01 01:36:00,39.1,31.2,29.90,WSW,254,0.0,1.0,73,0.00,,OVC037,0.02,VWS V14.00,2013-01-01 06:36:00,
2013-01-01 01:41:00,39.2,31.0,29.90,WSW,239,0.0,2.0,72,0.00,,OVC037,0.02,VWS V14.00,2013-01-01 06:41:00,
2013-01-01 01:46:00,39.2,31.0,29.91,WSW,238,0.0,0.0,72,0.00,,OVC037,0.02,VWS V14.00,2013-01-01 06:46:00,
2013-01-01 01:51:00,39.2,31.3,29.91,WSW,240,0.0,3.0,73,0.00,,OVC037,0.02,VWS V14.00,2013-01-01 06:51:00,
2013-01-01 01:56:00,39.1,31.2,29.91,SW,221,0.0,0.0,73,0.00,,OVC037,0.02,VWS V14.00,2013-01-01 06:56:00,
2013-01-01 02:01:00,39.1,31.2,29.91,SW,221,0.0,0.0,73,0.00,,OVC035,0.02,VWS V14.00,2013-01-01 07:01:00,
2013-01-01 02:06:00,39.1,31.2,29.91,SW,227,0.0,2.0,73,0.00,,OVC035,0.02,VWS V14.00,2013-01-01 07:06:00,
2013-01-01 02:11:00,39.1,31.2,29.91,West,265,3.0,5.0,73,0.00,,OVC035,0.02,VWS V14.00,2013-01-01 07:11:00,
2013-01-01 02:16:00,39.0,31.1,29.91,SW,236,0.0,1.0,73,0.00,,OVC035,0.02,VWS V14.00,2013-01-01 07:16:00,
2013-01-01 02:21:00,39.1,31.2,29.91,SW,236,0.0,0.0,73,0.00,,OVC035,0.02,VWS V14.00,2013-01-01 07:21:00,
2013-01-01 02:26:00,39.0,31.1,29.91,SW,236,0.0,0.0,73,0.00,,OVC035,0.02,VWS V14.00,2013-01-01 07:26:00,
2013-01-01 02:31:00,38.9,31.0,29.92,WSW,248,0.0,1.0,73,0.00,,OVC035,0.02,VWS V14.00,2013-01-01 07:31:00,
2013-01-01 02:36:00,38.9,31.0,29.92,WSW,248,0.0,0.0,73,0.00,,OVC035,0.02,VWS V14.00,2013-01-01 07:36:00,
2013-01-01 02:41:00,38.9,31.0,29.92,WNW,284,1.0,1.0,73,0.00,,OVC035,0.02,VWS V14.00,2013-01-01 07:41:00,
2013-01-01 02:46:00,38.9,31.3,29.92,WNW,283,0.0,0.0,74,0.00,,OVC035,0.02,VWS V14.00,2013-01-01 07:46:00,
2013-01-01 02:51:00,38.9,31.3,29.92,SW,226,0.0,2.0,74,0.00,,OVC035,0.03,VWS V14.00,2013-01-01 07:51:00,
2013-01-01 02:56:00,38.9,31.3,29.92,West,271,2.0,4.0,74,0.00,,OVC035,0.03,VWS V14.00,2013-01-01 07:56:00,
2013-01-01 03:01:00,39.1,31.2,29.92,WSW,256,7.0,9.0,73,0.00,,OVC042,0.03,VWS V14.00,2013-01-01 08:01:00,
2013-01-01 03:06:00,39.1,31.2,29.92,West,269,0.0,1.0,73,0.00,,OVC042,0.03,VWS V14.00,2013-01-01 08:06:00,
2013-01-01 03:11:00,39.1,31.2,29.92,SW,225,0.0,2.0,73,0.00,,OVC042,0.03,VWS V14.00,2013-01-01 08:11:00,
2013-01-01 03:16:00,39.1,31.5,29.93,WNW,286,3.0,3.0,74,0.00,,OVC042,0.03,VWS V14.00,2013-01-01 08:16:00,
2013-01-01 03:21:00,39.0,31.4,29.93,West,275,0.0,0.0,74,0.00,,OVC042,0.03,VWS V14.00,2013-01-01 08:21:00,
2013-01-01 03:26:00,39.1,31.2,29.93,West,263,0.0,2.0,73,0.00,,OVC042,0.03,VWS V14.00,2013-01-01 08:26:00,
2013-01-01 03:31:00,39.1,31.2,29.92,WNW,288,0.0,3.0,73,0.00,,OVC042,0.03,VWS V14.00,2013-01-01 08:31:00,
2013-01-01 03:36:00,39.1,31.2,29.92,NW,312,3.0,4.0,73,0.00,,OVC042,0.03,VWS V14.00,2013-01-01 08:36:00,
2013-01-01 03:41:00,39.1,31.2,29.92,WNW,302,0.0,0.0,73,0.00,,OVC042,0.03,VWS V14.00,2013-01-01 08:41:00,
2013-01-01 03:46:00,39.0,31.4,29.93,SW,219,0.0,1.0,74,0.00,,OVC042,0.03,VWS V14.00,2013-01-01 08:46:00,
2013-01-01 03:51:00,38.9,31.3,29.93,WNW,285,0.0,1.0,74,0.00,,OVC042,0.04,VWS V14.00,2013-01-01 08:51:00,
2013-01-01 03:56:00,38.9,31.3,29.93,WSW,252,0.0,1.0,74,0.00,,OVC042,0.04,VWS V14.00,2013-01-01 08:56:00,
2013-01-01 04:01:00,38.8,31.2,29.92,WNW,292,0.0,0.0,74,0.00,,OVC037,0.04,VWS V14.00,2013-01-01 09:01:00,
2013-01-01 04:06:00,38.8,31.2,29.92,WNW,290,0.0,1.0,74,0.00,,OVC037,0.04,VWS V14.00,2013-01-01 09:06:00,
2013-01-01 04:11:00,38.7,31.1,29.92,SSW,211,0.0,0.0,74,0.00,,OVC037,0.04,VWS V14.00,2013-01-01 09:11:00,
2013-01-01 04:16:00,38.8,31.2,29.92,West,269,0.0,0.0,74,0.00,,OVC037,0.04,VWS V14.00,2013-01-01 09:16:00,
2013-01-01 04:21:00,38.7,31.5,29.92,WNW,291,2.0,2.0,75,0.00,,OVC037,0.04,VWS V14.00,2013-01-01 09:21:00,
2013-01-01 04:26:00,38.6,31.4,29.92,WNW,296,0.0,2.0,75,0.00,,OVC037,0.04,VWS V14.00,2013-01-01 09:26:00,
2013-01-01 04:31:00,38.5,31.3,29.91,WNW,301,2.0,3.0,75,0.00,,OVC037,0.04,VWS V14.00,2013-01-01 09:31:00,
2013-01-01 04:36:00,38.5,31.3,29.91,WNW,299,5.0,5.0,75,0.00,,OVC037,0.04,VWS V14.00,2013-01-01 09:36:00,
2013-01-01 04:41:00,38.4,31.2,29.91,WNW,302,0.0,0.0,75,0.00,,OVC037,0.04,VWS V14.00,2013-01-01 09:41:00,
2013-01-01 04:46:00,38.3,31.1,29.90,WNW,302,0.0,1.0,75,0.00,,OVC037,0.04,VWS V14.00,2013-01-01 09:46:00,
2013-01-01 04:51:00,38.2,31.0,29.90,WNW,302,0.0,0.0,75,0.00,,OVC037,0.04,VWS V14.00,2013-01-01 09:51:00,
2013-01-01 04:56:00,38.0,30.8,29.90,WNW,302,0.0,0.0,75,0.00,,OVC037,0.04,VWS V14.00,2013-01-01 09:56:00,
2013-01-01 05:06:00,37.7,30.8,29.91,WNW,292,1.0,5.0,76,0.00,,BKN080,0.04,VWS V14.00,2013-01-01 10:06:00,
2013-01-01 05:11:00,37.5,31.0,29.91,WNW,299,0.0,0.0,77,0.00,,BKN080,0.04,VWS V14.00,2013-01-01 10:11:00,
2013-01-01 05:16:00,37.3,30.8,29.91,WNW,300,0.0,0.0,77,0.00,,BKN080,0.04,VWS V14.00,2013-01-01 10:16:00,
2013-01-01 05:21:00,37.1,30.6,29.91,WNW,300,2.0,2.0,77,0.00,,BKN080,0.04,VWS V14.00,2013-01-01 10:21:00,
2013-01-01 05:26:00,37.0,30.5,29.91,WNW,300,0.0,0.0,77,0.00,,BKN080,0.04,VWS V14.00,2013-01-01 10:26:00,
2013-01-01 05:31:00,36.9,30.7,29.91,WNW,299,0.0,0.0,78,0.00,,BKN080,0.04,VWS V14.00,2013-01-01 10:31:00,
2013-01-01 05:36:00,36.8,30.6,29.91,WNW,299,0.0,0.0,78,0.00,,BKN080,0.04,VWS V14.00,2013-01-01 10:36:00,
2013-01-01 05:41:00,36.8,30.6,29.91,WNW,303,0.0,1.0,78,0.00,,BKN080,0.04,VWS V14.00,2013-01-01 10:41:00,
2013-01-01 05:46:00,36.8,30.9,29.91,West,263,1.0,1.0,79,0.00,,BKN080,0.04,VWS V14.00,2013-01-01 10:46:00,
2013-01-01 05:51:00,37.1,31.2,29.91,WNW,292,1.0,4.0,79,0.00,,BKN080,0.04,VWS V14.00,2013-01-01 10:51:00,
2013-01-01 05:56:00,37.4,31.2,29.91,WNW,298,0.0,1.0,78,0.00,,BKN080,0.04,VWS V14.00,2013-01-01 10:56:00,
2013-01-01 06:01:00,37.6,31.4,29.92,SSW,207,0.0,2.0,78,0.00,,OVC041,0.04,VWS V14.00,2013-01-01 11:01:00,
2013-01-01 06:06:00,37.7,31.1,29.92,SW,224,0.0,3.0,77,0.00,,OVC041,0.04,VWS V14.00,2013-01-01 11:06:00,
2013-01-01 06:11:00,37.7,31.1,29.92,WSW,246,0.0,0.0,77,0.00,,OVC041,0.04,VWS V14.00,2013-01-01 11:11:00,
2013-01-01 06:16:00,37.7,31.1,29.92,WSW,239,0.0,0.0,77,0.00,,OVC041,0.04,VWS V14.00,2013-01-01 11:16:00,
2013-01-01 06:21:00,37.6,31.1,29.92,WSW,239,0.0,0.0,77,0.00,,OVC041,0.04,VWS V14.00,2013-01-01 11:21:00,
2013-01-01 06:26:00,37.5,31.0,29.92,WSW,239,0.0,0.0,77,0.00,,OVC041,0.05,VWS V14.00,2013-01-01 11:26:00,
2013-01-01 06:31:00,37.4,31.2,29.92,WNW,283,0.0,1.0,78,0.00,,OVC041,0.05,VWS V14.00,2013-01-01 11:31:00,
2013-01-01 06:36:00,37.3,31.1,29.92,WNW,298,0.0,2.0,78,0.00,,OVC041,0.05,VWS V14.00,2013-01-01 11:36:00,
2013-01-01 06:41:00,37.3,31.1,29.92,WNW,293,1.0,2.0,78,0.00,,OVC041,0.05,VWS V14.00,2013-01-01 11:41:00,
2013-01-01 06:46:00,37.4,31.2,29.92,WSW,246,0.0,4.0,78,0.00,,OVC041,0.05,VWS V14.00,2013-01-01 11:46:00,
2013-01-01 06:51:00,37.4,31.2,29.92,West,269,0.0,2.0,78,0.00,,OVC041,0.05,VWS V14.00,2013-01-01 11:51:00,
2013-01-01 06:56:00,37.4,31.2,29.92,NNE,32,1.0,2.0,78,0.00,,OVC041,0.05,VWS V14.00,2013-01-01 11:56:00,
2013-01-01 07:01:00,37.3,31.1,29.92,SSW,194,0.0,0.0,78,0.00,,OVC039,0.05,VWS V14.00,2013-01-01 12:01:00,
2013-01-01 07:06:00,37.2,31.0,29.92,WSW,250,0.0,0.0,78,0.00,,OVC039,0.05,VWS V14.00,2013-01-01 12:06:00,
2013-01-01 07:11:00,37.1,30.9,29.92,West,272,0.0,0.0,78,0.00,,OVC039,0.05,VWS V14.00,2013-01-01 12:11:00,
2013-01-01 07:16:00,37.0,30.8,29.92,WNW,291,3.0,3.0,78,0.00,,OVC039,0.05,VWS V14.00,2013-01-01 12:16:00,
2013-01-01 07:21:00,36.9,30.7,29.92,WNW,288,0.0,0.0,78,0.00,,OVC039,0.05,VWS V14.00,2013-01-01 12:21:00,
2013-01-01 07:26:00,36.9,30.7,29.92,WNW,290,0.0,1.0,78,0.00,,OVC039,0.05,VWS V14.00,2013-01-01 12:26:00,
2013-01-01 07:31:00,36.8,30.6,29.93,WNW,290,0.0,0.0,78,0.00,,OVC039,0.05,VWS V14.00,2013-01-01 12:31:00,
2013-01-01 07:36:00,36.8,30.6,29.93,WNW,290,0.0,0.0,78,0.00,,OVC039,0.05,VWS V14.00,2013-01-01 12:36:00,
2013-01-01 07:41:00,36.6,30.4,29.93,WNW,290,0.0,0.0,78,0.00,,OVC039,0.05,VWS V14.00,2013-01-01 12:41:00,
2013-01-01 07:46:00,36.5,30.6,29.92,WNW,290,0.0,1.0,79,0.00,,OVC039,0.05,VWS V14.00,2013-01-01 12:46:00,
2013-01-01 07:51:00,36.5,30.6,29.92,WNW,288,0.0,4.0,79,0.00,,OVC039,0.05,VWS V14.00,2013-01-01 12:51:00,
2013-01-01 07:56:00,36.6,30.7,29.92,West,277,0.0,0.0,79,0.00,,OVC039,0.05,VWS V14.00,2013-01-01 12:56:00,
2013-01-01 08:01:00,36.6,30.7,29.92,West,277,0.0,0.0,79,0.00,,SCT055,0.05,VWS V14.00,2013-01-01 13:01:00,
2013-01-01 08:06:00,36.6,30.7,29.92,West,261,0.0,0.0,79,0.00,,SCT055,0.05,VWS V14.00,2013-01-01 13:06:00,
2013-01-01 08:11:00,36.7,30.8,29.92,West,261,0.0,1.0,79,0.00,,SCT055,0.05,VWS V14.00,2013-01-01 13:11:00,
2013-01-01 08:16:00,36.8,30.9,29.93,West,261,0.0,2.0,79,0.00,,SCT055,0.05,VWS V14.00,2013-01-01 13:16:00,
2013-01-01 08:21:00,36.8,30.9,29.93,West,260,0.0,2.0,79,0.00,,SCT055,0.05,VWS V14.00,2013-01-01 13:21:00,
2013-01-01 08:26:00,36.9,31.0,29.93,West,269,3.0,4.0,79,0.00,,SCT055,0.05,VWS V14.00,2013-01-01 13:26:00,
2013-01-01 08:31:00,37.0,31.1,29.93,West,281,0.0,4.0,79,0.00,,SCT055,0.05,VWS V14.00,2013-01-01 13:31:00,
2013-01-01 08:36:00,37.2,31.0,29.93,West,260,0.0,0.0,78,0.00,,SCT055,0.05,VWS V14.00,2013-01-01 13:36:00,
2013-01-01 08:41:00,37.3,31.1,29.93,West,281,1.0,1.0,78,0.00,,SCT055,0.05,VWS V14.00,2013-01-01 13:41:00,
2013-01-01 08:46:00,37.4,31.2,29.93,WNW,296,0.0,1.0,78,0.00,,SCT055,0.05,VWS V14.00,2013-01-01 13:46:00,
2013-01-01 08:51:00,37.5,31.0,29.93,WSW,244,3.0,4.0,77,0.00,,SCT055,0.05,VWS V14.00,2013-01-01 13:51:00,
2013-01-01 08:56:00,37.6,31.1,29.93,WNW,295,1.0,1.0,77,0.00,,SCT055,0.05,VWS V14.00,2013-01-01 13:56:00,
2013-01-01 09:01:00,37.7,31.1,29.93,NW,315,0.0,1.0,77,0.00,,SCT055,0.05,VWS V14.00,2013-01-01 14:01:00,
2013-01-01 09:06:00,37.7,31.1,29.93,NW,310,1.0,1.0,77,0.00,,OVC095,0.05,VWS V14.00,2013-01-01 14:06:00,
2013-01-01 09:11:00,37.8,30.9,29.93,NW,315,0.0,4.0,76,0.00,,OVC095,0.05,VWS V14.00,2013-01-01 14:11:00,
2013-01-01 09:16:00,37.9,31.0,29.94,West,268,2.0,2.0,76,0.00,,OVC095,0.06,VWS V14.00,2013-01-01 14:16:00,
2013-01-01 09:21:00,38.0,31.1,29.94,SSW,207,0.0,2.0,76,0.00,,OVC095,0.06,VWS V14.00,2013-01-01 14:21:00,
2013-01-01 09:26:00,38.0,31.1,29.94,NW,318,0.0,0.0,76,0.00,,OVC095,0.06,VWS V14.00,2013-01-01 14:26:00,
2013-01-01 09:31:00,38.2,31.0,29.93,WNW,296,0.0,0.0,75,0.00,,OVC095,0.06,VWS V14.00,2013-01-01 14:31:00,
2013-01-01 09:36:00,38.3,31.4,29.93,WNW,296,0.0,0.0,76,0.00,,OVC095,0.06,VWS V14.00,2013-01-01 14:36:00,
2013-01-01 09:41:00,38.3,31.1,29.93,SSW,194,0.0,0.0,75,0.00,,OVC095,0.06,VWS V14.00,2013-01-01 14:41:00,
2013-01-01 09:46:00,38.4,31.2,29.93,WNW,296,0.0,0.0,75,0.00,,OVC095,0.06,VWS V14.00,2013-01-01 14:46:00,
2013-01-01 09:51:00,38.4,31.2,29.93,WNW,296,0.0,0.0,75,0.00,,OVC095,0.06,VWS V14.00,2013-01-01 14:51:00,
2013-01-01 09:56:00,38.5,31.3,29.93,West,276,0.0,1.0,75,0.00,,OVC095,0.06,VWS V14.00,2013-01-01 14:56:00,
2013-01-01 10:01:00,38.5,31.3,29.94,NW,314,2.0,4.0,75,0.00,,OVC100,0.06,VWS V14.00,2013-01-01 15:01:00,
2013-01-01 10:06:00,38.6,31.0,29.94,WNW,294,0.0,1.0,74,0.00,,OVC100,0.06,VWS V14.00,2013-01-01 15:06:00,
2013-01-01 10:11:00,38.7,31.1,29.94,West,263,0.0,0.0,74,0.00,,OVC100,0.06,VWS V14.00,2013-01-01 15:11:00,
2013-01-01 10:16:00,38.7,31.1,29.93,WNW,286,0.0,2.0,74,0.00,,OVC100,0.06,VWS V14.00,2013-01-01 15:16:00,
2013-01-01 10:21:00,38.8,31.2,29.93,SW,219,2.0,4.0,74,0.00,,OVC100,0.06,VWS V14.00,2013-01-01 15:21:00,
2013-01-01 10:26:00,38.8,30.9,29.93,WSW,254,3.0,4.0,73,0.00,,OVC100,0.06,VWS V14.00,2013-01-01 15:26:00,
2013-01-01 10:31:00,38.9,31.0,29.94,WNW,295,3.0,6.0,73,0.00,,OVC100,0.06,VWS V14.00,2013-01-01 15:31:00,
2013-01-01 10:36:00,39.0,31.1,29.94,WSW,249,0.0,2.0,73,0.00,,OVC100,0.06,VWS V14.00,2013-01-01 15:36:00,
2013-01-01 10:41:00,39.1,31.2,29.94,WNW,284,0.0,3.0,73,0.00,,OVC100,0.06,VWS V14.00,2013-01-01 15:41:00,
2013-01-01 10:46:00,39.1,31.2,29.94,WNW,298,0.0,2.0,73,0.00,,OVC100,0.07,VWS V14.00,2013-01-01 15:46:00,
2013-01-01 10:51:00,39.2,31.3,29.94,NW,325,6.0,7.0,73,0.00,,OVC100,0.07,VWS V14.00,2013-01-01 15:51:00,
2013-01-01 10:56:00,39.3,31.4,29.94,NW,317,1.0,2.0,73,0.00,,OVC100,0.07,VWS V14.00,2013-01-01 15:56:00,
2013-01-01 11:06:00,39.3,31.4,29.93,West,270,2.0,10.0,73,0.00,,OVC100,0.07,VWS V14.00,2013-01-01 16:06:00,
2013-01-01 11:11:00,39.3,31.4,29.93,West,273,5.0,5.0,73,0.00,,BKN100,0.07,VWS V14.00,2013-01-01 16:11:00,
2013-01-01 11:16:00,39.3,31.4,29.92,SW,236,3.0,4.0,73,0.00,,BKN100,0.07,VWS V14.00,2013-01-01 16:16:00,
2013-01-01 11:21:00,39.3,31.0,29.92,NW,311,4.0,5.0,72,0.00,,BKN100,0.07,VWS V14.00,2013-01-01 16:21:00,
2013-01-01 11:26:00,39.3,31.0,29.92,SW,234,0.0,4.0,72,0.00,,BKN100,0.07,VWS V14.00,2013-01-01 16:26:00,
2013-01-01 11:31:00,39.2,31.3,29.91,West,275,0.0,2.0,73,0.00,,BKN100,0.07,VWS V14.00,2013-01-01 16:31:00,
2013-01-01 11:36:00,39.3,31.0,29.91,WNW,284,0.0,0.0,72,0.00,,BKN100,0.08,VWS V14.00,2013-01-01 16:36:00,
2013-01-01 11:41:00,39.3,31.4,29.91,WNW,300,0.0,3.0,73,0.00,,BKN100,0.08,VWS V14.00,2013-01-01 16:41:00,
2013-01-01 11:46:00,39.3,31.4,29.91,WSW,240,1.0,1.0,73,0.00,,BKN100,0.08,VWS V14.00,2013-01-01 16:46:00,
2013-01-01 11:51:00,39.4,31.5,29.91,West,267,0.0,1.0,73,0.00,,BKN100,0.08,VWS V14.00,2013-01-01 16:51:00,
2013-01-01 11:56:00,39.5,31.6,29.91,SSW,206,0.0,3.0,73,0.00,,BKN100,0.08,VWS V14.00,2013-01-01 16:56:00,
2013-01-01 12:01:00,39.4,31.1,29.90,West,275,0.0,1.0,72,0.00,,OVC110,0.08,VWS V14.00,2013-01-01 17:01:00,
2013-01-01 12:06:00,39.3,31.0,29.90,SW,234,3.0,3.0,72,0.00,,OVC110,0.08,VWS V14.00,2013-01-01 17:06:00,
2013-01-01 12:11:00,39.3,31.0,29.90,WSW,257,0.0,3.0,72,0.00,,OVC110,0.08,VWS V14.00,2013-01-01 17:11:00,
2013-01-01 12:16:00,39.3,31.0,29.90,WNW,298,0.0,1.0,72,0.00,,OVC110,0.08,VWS V14.00,2013-01-01 17:16:00,
2013-01-01 12:21:00,39.3,31.4,29.90,WNW,298,6.0,7.0,73,0.00,,OVC110,0.08,VWS V14.00,2013-01-01 17:21:00,
2013-01-01 12:26:00,39.3,31.0,29.90,West,281,3.0,3.0,72,0.00,,OVC110,0.08,VWS V14.00,2013-01-01 17:26:00,
2013-01-01 12:31:00,39.4,31.1,29.89,West,275,0.0,4.0,72,0.00,,OVC110,0.08,VWS V14.00,2013-01-01 17:31:00,
2013-01-01 12:36:00,39.4,31.1,29.89,WSW,253,0.0,4.0,72,0.00,,OVC110,0.09,VWS V14.00,2013-01-01 17:36:00,
2013-01-01 12:41:00,39.3,30.7,29.89,WSW,252,2.0,10.0,71,0.00,,OVC110,0.09,VWS V14.00,2013-01-01 17:41:00,
2013-01-01 12:46:00,39.3,31.0,29.89,West,275,1.0,3.0,72,0.00,,OVC110,0.09,VWS V14.00,2013-01-01 17:46:00,
2013-01-01 12:51:00,39.4,31.1,29.89,WSW,245,1.0,2.0,72,0.00,,OVC110,0.09,VWS V14.00,2013-01-01 17:51:00,
2013-01-01 12:56:00,39.4,31.1,29.89,WSW,257,2.0,3.0,72,0.00,,OVC110,0.09,VWS V14.00,2013-01-01 17:56:00,
2013-01-01 13:01:00,39.3,31.0,29.89,WNW,286,9.0,14.0,72,0.00,,OVC110,0.09,VWS V14.00,2013-01-01 18:01:00,
2013-01-01 13:06:00,39.3,30.7,29.89,WNW,287,4.0,7.0,71,0.00,,OVC110,0.09,VWS V14.00,2013-01-01 18:06:00,
2013-01-01 13:11:00,39.3,31.0,29.89,WNW,292,1.0,4.0,72,0.00,,OVC110,0.09,VWS V14.00,2013-01-01 18:11:00,
2013-01-01 13:16:00,39.2,31.0,29.87,WNW,291,0.0,3.0,72,0.00,,OVC110,0.09,VWS V14.00,2013-01-01 18:16:00,
2013-01-01 13:21:00,39.2,31.0,29.87,NW,309,0.0,3.0,72,0.00,,OVC110,0.09,VWS V14.00,2013-01-01 18:21:00,
2013-01-01 13:26:00,39.2,31.0,29.87,West,268,1.0,2.0,72,0.00,,OVC110,0.09,VWS V14.00,2013-01-01 18:26:00,
2013-01-01 13:31:00,39.1,30.9,29.86,WSW,246,2.0,5.0,72,0.00,,OVC110,0.09,VWS V14.00,2013-01-01 18:31:00,
2013-01-01 13:36:00,39.1,30.5,29.86,NW,304,1.0,5.0,71,0.00,,OVC110,0.09,VWS V14.00,2013-01-01 18:36:00,
2013-01-01 13:41:00,39.1,30.9,29.86,SW,233,0.0,2.0,72,0.00,,OVC110,0.09,VWS V14.00,2013-01-01 18:41:00,
2013-01-01 13:46:00,39.1,30.9,29.86,West,275,3.0,5.0,72,0.00,,OVC110,0.10,VWS V14.00,2013-01-01 18:46:00,
2013-01-01 13:51:00,39.1,30.9,29.86,West,259,2.0,2.0,72,0.00,,OVC110,0.10,VWS V14.00,2013-01-01 18:51:00,
2013-01-01 13:56:00,39.1,31.2,29.86,West,272,1.0,1.0,73,0.00,,OVC110,0.10,VWS V14.00,2013-01-01 18:56:00,
2013-01-01 14:01:00,39.0,31.1,29.86,NNW,327,0.0,6.0,73,0.00,,OVC046,0.10,VWS V14.00,2013-01-01 19:01:00,
2013-01-01 14:06:00,39.0,30.8,29.86,West,271,1.0,3.0,72,0.00,,OVC046,0.10,VWS V14.00,2013-01-01 19:06:00,
2013-01-01 14:11:00,39.0,30.8,29.86,NW,311,5.0,5.0,72,0.00,,OVC046,0.10,VWS V14.00,2013-01-01 19:11:00,
2013-01-01 14:16:00,39.0,30.4,29.86,NW,318,2.0,5.0,71,0.00,,OVC046,0.10,VWS V14.00,2013-01-01 19:16:00,
2013-01-01 14:21:00,39.0,30.4,29.86,WNW,301,3.0,3.0,71,0.00,,OVC046,0.10,VWS V14.00,2013-01-01 19:21:00,
2013-01-01 14:26:00,39.0,30.8,29.86,NW,307,0.0,5.0,72,0.00,,OVC046,0.10,VWS V14.00,2013-01-01 19:26:00,
2013-01-01 14:31:00,39.0,30.4,29.87,WNW,297,0.0,4.0,71,0.00,,OVC046,0.10,VWS V14.00,2013-01-01 19:31:00,
2013-01-01 14:36:00,38.9,30.3,29.87,SE,140,3.0,5.0,71,0.00,,OVC046,0.10,VWS V14.00,2013-01-01 19:36:00,
2013-01-01 14:41:00,38.9,30.7,29.87,NW,310,5.0,5.0,72,0.00,,OVC046,0.10,VWS V14.00,2013-01-01 19:41:00,
2013-01-01 14:46:00,38.9,30.3,29.86,West,267,4.0,8.0,71,0.00,,OVC046,0.10,VWS V14.00,2013-01-01 19:46:00,
2013-01-01 14:51:00,38.9,30.3,29.86,NW,307,2.0,2.0,71,0.00,,OVC046,0.10,VWS V14.00,2013-01-01 19:51:00,
2013-01-01 14:56:00,38.9,30.3,29.86,NW,304,1.0,4.0,71,0.00,,OVC046,0.10,VWS V14.00,2013-01-01 19:56:00,
2013-01-01 15:06:00,38.8,30.2,29.87,West,270,2.0,10.0,71,0.00,,SCT050,0.10,VWS V14.00,2013-01-01 20:06:00,
2013-01-01 15:11:00,38.8,30.6,29.87,West,269,3.0,3.0,72,0.00,,SCT050,0.10,VWS V14.00,2013-01-01 20:11:00,
2013-01-01 15:16:00,38.8,30.6,29.88,WNW,286,2.0,2.0,72,0.00,,SCT050,0.10,VWS V14.00,2013-01-01 20:16:00,
2013-01-01 15:21:00,38.7,30.5,29.88,NW,311,1.0,5.0,72,0.00,,SCT050,0.10,VWS V14.00,2013-01-01 20:21:00,
2013-01-01 15:26:00,38.7,30.5,29.88,WSW,257,6.0,6.0,72,0.00,,SCT050,0.10,VWS V14.00,2013-01-01 20:26:00,
2013-01-01 15:31:00,38.7,30.5,29.89,West,265,2.0,4.0,72,0.00,,SCT050,0.10,VWS V14.00,2013-01-01 20:31:00,
2013-01-01 15:36:00,38.6,30.4,29.89,WNW,283,1.0,4.0,72,0.00,,SCT050,0.10,VWS V14.00,2013-01-01 20:36:00,
2013-01-01 15:41:00,38.5,30.3,29.89,WNW,300,4.0,8.0,72,0.00,,SCT050,0.10,VWS V14.00,2013-01-01 20:41:00,
2013-01-01 15:46:00,38.5,30.6,29.89,WNW,298,0.0,3.0,73,0.00,,SCT050,0.10,VWS V14.00,2013-01-01 20:46:00,
2013-01-01 15:51:00,38.5,30.6,29.89,West,273,1.0,2.0,73,0.00,,SCT050,0.10,VWS V14.00,2013-01-01 20:51:00,
2013-01-01 15:56:00,38.4,30.5,29.89,WNW,291,1.0,1.0,73,0.00,,SCT050,0.10,VWS V14.00,2013-01-01 20:56:00,
2013-01-01 16:01:00,38.4,30.5,29.90,WSW,254,5.0,5.0,73,0.00,,OVC070,0.10,VWS V14.00,2013-01-01 21:01:00,
2013-01-01 16:06:00,38.3,30.4,29.90,NNW,327,5.0,5.0,73,0.00,,OVC070,0.10,VWS V14.00,2013-01-01 21:06:00,
2013-01-01 16:11:00,38.2,30.3,29.90,WNW,302,4.0,4.0,73,0.00,,OVC032,0.11,VWS V14.00,2013-01-01 21:11:00,
2013-01-01 16:16:00,38.2,30.3,29.90,WNW,286,6.0,6.0,73,0.00,,OVC032,0.11,VWS V14.00,2013-01-01 21:16:00,
2013-01-01 16:21:00,38.2,30.3,29.90,NW,304,0.0,2.0,73,0.00,,OVC032,0.11,VWS V14.00,2013-01-01 21:21:00,
2013-01-01 16:26:00,38.1,30.2,29.90,NW,326,0.0,1.0,73,0.00,,OVC032,0.11,VWS V14.00,2013-01-01 21:26:00,
2013-01-01 16:31:00,38.0,30.5,29.90,West,276,6.0,6.0,74,0.00,,OVC032,0.11,VWS V14.00,2013-01-01 21:31:00,
2013-01-01 16:36:00,37.9,30.0,29.90,WNW,294,2.0,2.0,73,0.00,,OVC032,0.11,VWS V14.00,2013-01-01 21:36:00,
2013-01-01 16:41:00,37.9,30.0,29.90,West,275,4.0,4.0,73,0.00,,OVC032,0.11,VWS V14.00,2013-01-01 21:41:00,
2013-01-01 16:46:00,37.8,29.9,29.90,WNW,296,0.0,1.0,73,0.00,,OVC032,0.11,VWS V14.00,2013-01-01 21:46:00,
2013-01-01 16:51:00,37.8,29.9,29.90,WNW,300,1.0,3.0,73,0.00,,OVC032,0.11,VWS V14.00,2013-01-01 21:51:00,
2013-01-01 16:56:00,37.8,30.3,29.90,NW,315,1.0,4.0,74,0.00,,OVC032,0.11,VWS V14.00,2013-01-01 21:56:00,
2013-01-01 17:01:00,37.7,30.2,29.91,NW,309,2.0,3.0,74,0.00,,OVC031,0.11,VWS V14.00,2013-01-01 22:01:00,
2013-01-01 17:06:00,37.6,30.1,29.91,NNE,12,3.0,6.0,74,0.00,,OVC031,0.11,VWS V14.00,2013-01-01 22:06:00,
2013-01-01 17:11:00,37.4,29.9,29.91,North,5,3.0,4.0,74,0.00,,OVC031,0.11,VWS V14.00,2013-01-01 22:11:00,
2013-01-01 17:16:00,37.1,29.6,29.91,NW,317,3.0,3.0,74,0.00,,OVC031,0.11,VWS V14.00,2013-01-01 22:16:00,
2013-01-01 17:21:00,36.9,29.4,29.91,NW,311,3.0,5.0,74,0.00,,OVC031,0.11,VWS V14.00,2013-01-01 22:21:00,
2013-01-01 17:26:00,36.7,29.2,29.91,North,360,0.0,7.0,74,0.00,,OVC031,0.11,VWS V14.00,2013-01-01 22:26:00,
2013-01-01 17:31:00,36.6,29.1,29.92,North,355,0.0,0.0,74,0.00,,OVC031,0.11,VWS V14.00,2013-01-01 22:31:00,
2013-01-01 17:36:00,36.5,29.0,29.92,WNW,291,2.0,2.0,74,0.00,,OVC031,0.11,VWS V14.00,2013-01-01 22:36:00,
2013-01-01 17:41:00,36.4,28.9,29.92,NNW,334,0.0,4.0,74,0.00,,OVC031,0.11,VWS V14.00,2013-01-01 22:41:00,
2013-01-01 17:46:00,36.4,28.9,29.92,NNW,339,2.0,3.0,74,0.00,,OVC031,0.11,VWS V14.00,2013-01-01 22:46:00,
2013-01-01 17:51:00,36.3,29.1,29.92,NW,323,0.0,2.0,75,0.00,,OVC031,0.11,VWS V14.00,2013-01-01 22:51:00,
2013-01-01 17:56:00,36.3,28.8,29.92,North,360,1.0,1.0,74,0.00,,OVC031,0.11,VWS V14.00,2013-01-01 22:56:00,
2013-01-01 18:01:00,36.3,29.1,29.92,WNW,282,2.0,4.0,75,0.00,,OVC031,0.11,VWS V14.00,2013-01-01 23:01:00,
2013-01-01 18:06:00,36.2,28.7,29.92,WSW,243,0.0,6.0,74,0.00,,SCT050,0.11,VWS V14.00,2013-01-01 23:06:00,
2013-01-01 18:11:00,36.2,28.4,29.92,WNW,286,2.0,4.0,73,0.00,,SCT050,0.11,VWS V14.00,2013-01-01 23:11:00,
2013-01-01 18:16:00,36.2,28.4,29.94,NNW,344,0.0,3.0,73,0.00,,SCT050,0.11,VWS V14.00,2013-01-01 23:16:00,
2013-01-01 18:21:00,36.2,28.1,29.94,NW,307,0.0,3.0,72,0.00,,SCT050,0.11,VWS V14.00,2013-01-01 23:21:00,
2013-01-01 18:26:00,36.1,28.0,29.94,West,259,0.0,2.0,72,0.00,,SCT050,0.11,VWS V14.00,2013-01-01 23:26:00,
2013-01-01 18:31:00,36.0,27.9,29.95,WNW,302,2.0,2.0,72,0.00,,SCT050,0.11,VWS V14.00,2013-01-01 23:31:00,
2013-01-01 18:36:00,36.0,27.9,29.95,WNW,292,0.0,3.0,72,0.00,,SCT050,0.11,VWS V14.00,2013-01-01 23:36:00,
2013-01-01 18:41:00,35.9,27.8,29.95,WNW,295,0.0,4.0,72,0.00,,SCT050,0.11,VWS V14.00,2013-01-01 23:41:00,
2013-01-01 18:46:00,35.8,27.7,29.94,West,273,1.0,2.0,72,0.00,,SCT050,0.11,VWS V14.00,2013-01-01 23:46:00,
2013-01-01 18:51:00,35.7,27.6,29.94,WNW,296,4.0,4.0,72,0.00,,SCT050,0.11,VWS V14.00,2013-01-01 23:51:00,
2013-01-01 18:56:00,35.6,27.5,29.94,NW,323,2.0,2.0,72,0.00,,SCT050,0.11,VWS V14.00,2013-01-01 23:56:00,
2013-01-01 19:01:00,35.5,27.4,29.95,NNW,340,1.0,2.0,72,0.00,,FEW037,0.11,VWS V14.00,2013-01-02 00:01:00,
2013-01-01 19:06:00,35.4,27.3,29.95,North,360,2.0,4.0,72,0.00,,FEW037,0.11,VWS V14.00,2013-01-02 00:06:00,
2013-01-01 19:11:00,35.2,27.1,29.95,North,350,3.0,3.0,72,0.00,,FEW037,0.11,VWS V14.00,2013-01-02 00:11:00,
2013-01-01 19:16:00,35.1,27.0,29.95,North,360,0.0,0.0,72,0.00,,FEW037,0.11,VWS V14.00,2013-01-02 00:16:00,
2013-01-01 19:21:00,35.0,26.9,29.95,North,5,4.0,7.0,72,0.00,,FEW037,0.11,VWS V14.00,2013-01-02 00:21:00,
2013-01-01 19:26:00,34.6,26.2,29.95,North,360,3.0,5.0,71,0.00,,FEW037,0.11,VWS V14.00,2013-01-02 00:26:00,
2013-01-01 19:31:00,34.4,26.0,29.96,North,9,1.0,2.0,71,0.00,,FEW037,0.11,VWS V14.00,2013-01-02 00:31:00,
2013-01-01 19:36:00,34.4,25.6,29.96,NNW,327,3.0,4.0,70,0.00,,FEW037,0.11,VWS V14.00,2013-01-02 00:36:00,
2013-01-01 19:41:00,34.4,25.6,29.96,NNW,330,0.0,0.0,70,0.00,,FEW037,0.11,VWS V14.00,2013-01-02 00:41:00,
2013-01-01 19:46:00,34.2,25.5,29.97,NNW,346,0.0,1.0,70,0.00,,FEW037,0.11,VWS V14.00,2013-01-02 00:46:00,
2013-01-01 19:51:00,34.1,25.4,29.97,WNW,287,0.0,2.0,70,0.00,,FEW037,0.11,VWS V14.00,2013-01-02 00:51:00,
2013-01-01 19:56:00,34.1,25.4,29.97,WNW,288,0.0,0.0,70,0.00,,FEW037,0.11,VWS V14.00,2013-01-02 00:56:00,
2013-01-01 20:06:00,33.8,25.1,29.97,North,0,0.0,0.0,70,0.00,,FEW037,0.11,VWS V14.00,2013-01-02 01:06:00,
2013-01-01 20:11:00,33.6,25.2,29.97,North,355,0.0,0.0,71,0.00,,CLR,0.11,VWS V14.00,2013-01-02 01:11:00,
2013-01-01 20:16:00,33.5,25.1,29.97,North,355,0.0,0.0,71,0.00,,CLR,0.11,VWS V14.00,2013-01-02 01:16:00,
2013-01-01 20:21:00,33.3,25.3,29.97,North,5,1.0,3.0,72,0.00,,CLR,0.11,VWS V14.00,2013-01-02 01:21:00,
2013-01-01 20:26:00,33.2,25.2,29.97,NNE,14,1.0,4.0,72,0.00,,CLR,0.11,VWS V14.00,2013-01-02 01:26:00,
2013-01-01 20:31:00,33.0,24.6,29.96,North,9,3.0,4.0,71,0.00,,CLR,0.11,VWS V14.00,2013-01-02 01:31:00,
2013-01-01 20:36:00,33.0,24.3,29.96,NNW,329,2.0,5.0,70,0.00,,CLR,0.11,VWS V14.00,2013-01-02 01:36:00,
2013-01-01 20:41:00,33.0,24.0,29.96,NNW,330,0.0,0.0,69,0.00,,CLR,0.11,VWS V14.00,2013-01-02 01:41:00,
2013-01-01 20:46:00,32.9,23.9,29.97,NW,319,1.0,4.0,69,0.00,,CLR,0.11,VWS V14.00,2013-01-02 01:46:00,
2013-01-01 20:51:00,32.8,23.4,29.97,NNW,340,0.0,1.0,68,0.00,,CLR,0.11,VWS V14.00,2013-01-02 01:51:00,
2013-01-01 20:56:00,32.8,23.1,29.97,NNW,343,2.0,3.0,67,0.00,,CLR,0.11,VWS V14.00,2013-01-02 01:56:00,
2013-01-01 21:01:00,32.8,23.4,29.98,NNW,340,0.0,0.0,68,0.00,,CLR,0.11,VWS V14.00,2013-01-02 02:01:00,
2013-01-01 21:06:00,32.7,23.3,29.98,NNE,33,0.0,1.0,68,0.00,,CLR,0.11,VWS V14.00,2013-01-02 02:06:00,
2013-01-01 21:11:00,32.6,23.6,29.98,NNE,33,0.0,0.0,69,0.00,,CLR,0.11,VWS V14.00,2013-01-02 02:11:00,
2013-01-01 21:16:00,32.5,23.5,29.97,NW,325,0.0,1.0,69,0.00,,CLR,0.11,VWS V14.00,2013-01-02 02:16:00,
2013-01-01 21:21:00,32.3,22.9,29.97,North,5,2.0,5.0,68,0.00,,CLR,0.11,VWS V14.00,2013-01-02 02:21:00,
2013-01-01 21:26:00,32.3,22.6,29.97,North,355,3.0,4.0,67,0.00,,CLR,0.11,VWS V14.00,2013-01-02 02:26:00,
2013-01-01 21:31:00,32.2,22.1,29.98,NNW,328,0.0,6.0,66,0.00,,CLR,0.11,VWS V14.00,2013-01-02 02:31:00,
2013-01-01 21:36:00,32.2,22.1,29.98,NNW,342,2.0,3.0,66,0.00,,CLR,0.11,VWS V14.00,2013-01-02 02:36:00,
2013-01-01 21:41:00,32.1,21.7,29.98,North,355,0.0,3.0,65,0.00,,CLR,0.11,VWS V14.00,2013-01-02 02:41:00,
2013-01-01 21:46:00,32.0,21.6,29.98,NNW,333,1.0,3.0,65,0.00,,CLR,0.11,VWS V14.00,2013-01-02 02:46:00,
2013-01-01 21:51:00,32.0,21.2,29.98,North,5,3.0,4.0,64,0.00,,CLR,0.11,VWS V14.00,2013-01-02 02:51:00,
2013-01-01 21:56:00,31.9,21.5,29.98,NNW,346,0.0,2.0,65,0.00,,CLR,0.11,VWS V14.00,2013-01-02 02:56:00,
2013-01-01 22:01:00,31.8,21.4,29.99,North,355,0.0,1.0,65,0.00,,CLR,0.11,VWS V14.00,2013-01-02 03:01:00,
2013-01-01 22:06:00,31.7,20.9,29.99,NNE,15,0.0,0.0,64,0.00,,CLR,0.11,VWS V14.00,2013-01-02 03:06:00,
2013-01-01 22:11:00,31.6,21.2,29.99,NNW,342,1.0,3.0,65,0.00,,CLR,0.11,VWS V14.00,2013-01-02 03:11:00,
2013-01-01 22:16:00,31.5,20.7,30.00,North,355,0.0,1.0,64,0.00,,CLR,0.11,VWS V14.00,2013-01-02 03:16:00,
2013-01-01 22:21:00,31.4,20.6,30.00,North,355,0.0,0.0,64,0.00,,CLR,0.11,VWS V14.00,2013-01-02 03:21:00,
2013-01-01 22:26:00,31.4,20.6,30.00,NNW,329,3.0,5.0,64,0.00,,CLR,0.11,VWS V14.00,2013-01-02 03:26:00,
2013-01-01 22:31:00,31.3,20.5,30.00,NW,323,3.0,4.0,64,0.00,,CLR,0.11,VWS V14.00,2013-01-02 03:31:00,
2013-01-01 22:36:00,31.2,20.8,30.00,North,5,4.0,4.0,65,0.00,,CLR,0.11,VWS V14.00,2013-01-02 03:36:00,
2013-01-01 22:41:00,31.1,20.4,30.00,NNE,13,2.0,6.0,64,0.00,,CLR,0.11,VWS V14.00,2013-01-02 03:41:00,
2013-01-01 22:46:00,31.0,20.3,30.00,NNW,344,3.0,3.0,64,0.00,,CLR,0.11,VWS V14.00,2013-01-02 03:46:00,
2013-01-01 22:51:00,30.9,20.2,30.00,NNE,14,1.0,2.0,64,0.00,,CLR,0.11,VWS V14.00,2013-01-02 03:51:00,
2013-01-01 22:56:00,30.8,20.4,30.00,NNW,335,1.0,2.0,65,0.00,,CLR,0.11,VWS V14.00,2013-01-02 03:56:00,
2013-01-01 23:01:00,30.7,20.0,30.02,NE,40,0.0,0.0,64,0.00,,CLR,0.11,VWS V14.00,2013-01-02 04:01:00,
2013-01-01 23:06:00,30.5,19.8,30.02,NNE,21,3.0,3.0,64,0.00,,CLR,0.11,VWS V14.00,2013-01-02 04:06:00,
2013-01-01 23:11:00,30.4,19.7,30.02,NNE,26,3.0,5.0,64,0.00,,CLR,0.11,VWS V14.00,2013-01-02 04:11:00,
2013-01-01 23:16:00,30.3,19.6,30.03,North,11,0.0,3.0,64,0.00,,CLR,0.11,VWS V14.00,2013-01-02 04:16:00,
2013-01-01 23:21:00,30.1,19.4,30.03,North,350,1.0,2.0,64,0.00,,CLR,0.11,VWS V14.00,2013-01-02 04:21:00,
2013-01-01 23:26:00,29.9,19.6,30.03,North,11,3.0,5.0,65,0.00,,CLR,0.11,VWS V14.00,2013-01-02 04:26:00,
2013-01-01 23:31:00,29.8,19.1,30.02,North,360,4.0,6.0,64,0.00,,CLR,0.11,VWS V14.00,2013-01-02 04:31:00,
2013-01-01 23:36:00,29.6,18.9,30.02,NNW,330,4.0,6.0,64,0.00,,CLR,0.11,VWS V14.00,2013-01-02 04:36:00,
2013-01-01 23:41:00,29.5,18.8,30.02,North,10,1.0,1.0,64,0.00,,CLR,0.11,VWS V14.00,2013-01-02 04:41:00,
2013-01-01 23:46:00,29.3,18.6,30.02,North,360,4.0,5.0,64,0.00,,CLR,0.11,VWS V14.00,2013-01-02 04:46:00,
2013-01-01 23:51:00,29.2,18.5,30.02,North,355,2.0,4.0,64,0.00,,CLR,0.11,VWS V14.00,2013-01-02 04:51:00,
2013-01-01 23:56:00,29.1,18.8,30.02,North,10,4.0,4.0,65,0.00,,CLR,0.11,VWS V14.00,2013-01-02 04:56:00,